Location: ???????
(56.2167°N, 38.0500°E)
Time: 11:50:08
(UTC+00:00)

Cosmos 1980 Rocket - Pass Details

Date: 19 May 2025
Orbit: 829 x 847 km, 71.0° (Epoch: 13 June)

Event Time Altitude Azimuth Distance (km) Brightness Sun altitude
Rises 20:46:36 0° 318° (NW) 3,385 6.4 -13.4°
Reaches altitude 10° 20:49:52 10° 299° (WNW) 2,446 5.1 -13.5°
Maximum altitude 20:53:18 17° 261° (W) 2,000 4.1 -13.5°
Drops below altitude 10° 20:56:44 10° 223° (SW) 2,440 4.2 -13.6°
Enters shadow 20:57:18 - 219° (SW) 2,579 4.3 -13.6°
